Flag for U.S.A. Weather past 2 weeks in Osage City, Kansas, U.S.A.

Now
83 °F

Sunny.


Feels Like: 86 °F
Forecast: 69 / 85 °F
Wind: 17 mph from South

Location: Forbes Field

Current Time: Aug 28, 2015 at 2:20:34 PM

Latest Report: Aug 28, 2015 at 1:53 PM


Visibility: 10 mi

Pressure: 29.86 "Hg

Humidity: 61%

Dew point: 68 °F

Location of Osage CityLocation

Historic Weather in Osage City — Graph

°F

Osage City temperature yesterday

Maximum temperature yesterday: 80 °F (at 1:53 PM)
Minimum temperature yesterday: 67 °F (at 5:53 AM)
Average temperature yesterday: 73 °F

Past Weeks' High & Low Weather Summary

 TemperatureHumidityPressure
High90 °F (Aug 15, 3:53 PM)90% (Aug 15, 6:53 AM)30.20 "Hg (Aug 15, 6:53 AM)
Low52 °F (Aug 24, 5:53 AM)33% (Aug 24, 4:53 PM)29.66 "Hg (Aug 18, 5:53 PM)
Average73 °F68%30.00 "Hg
* Reported Aug 13 12:53 PM — Aug 28 12:53 PM, Osage City, Weather by CustomWeather, © 2015

Note: Actual official high and low records may vary slightly from our data, if they occured in-between our weather recording intervals... More about our weather records

Advertising

Osage City weather history for previous 24 hours

 ConditionsComfort  
Time TempWeatherWind HumidityBarometerVisibility
12:53 PM
Fri, Aug 28
82 °FSunny.10 mph67%29.88 "Hg10 mi
11:53 AM79 °FSunny.15 mph69%29.89 "Hg10 mi
10:53 AM73 °FOvercast.13 mph81%29.91 "Hg10 mi
9:53 AM71 °FSunny.15 mph87%29.89 "Hg9 mi
8:53 AM69 °FLight rain. Cloudy.9 mph90%29.92 "Hg10 mi
7:53 AM69 °FRain. Fog.10 mph87%29.92 "Hg5 mi
6:53 AM70 °FPassing clouds.6 mph81%29.90 "Hg10 mi
5:53 AM70 °FClear.10 mph79%29.90 "Hg10 mi
4:53 AM70 °FClear.10 mph76%29.91 "Hg10 mi
3:53 AM70 °FPassing clouds.7 mph76%29.92 "Hg10 mi
2:53 AM71 °FPassing clouds.6 mph73%29.93 "Hg10 mi
1:53 AM71 °FClear.9 mph76%29.94 "Hg10 mi
12:53 AM72 °FClear.14 mph76%29.91 "Hg10 mi
11:53 PM
Thu, Aug 27
71 °FClear.12 mph87%29.93 "Hg10 mi
10:53 PM72 °FClear.7 mph84%29.94 "Hg10 mi
9:53 PM73 °FClear.12 mph81%29.94 "Hg10 mi
8:53 PM73 °FSunny.12 mph79%29.92 "Hg10 mi
7:53 PM74 °FSunny.10 mph76%29.90 "Hg10 mi
6:53 PM75 °FSunny.9 mph71%29.91 "Hg10 mi
5:53 PM77 °FSunny.10 mph66%29.92 "Hg10 mi
4:53 PM77 °FSunny.15 mph66%29.96 "Hg10 mi
3:53 PM80 °FSunny.13 mph64%30.00 "Hg10 mi
2:53 PM80 °FPartly sunny.15 mph60%30.04 "Hg10 mi
Weather by CustomWeather, © 2015

See weather overviewHow to use our weather pages